千帆星座-93(QIANFAN-93)

导读

QIANFAN-93是中国于2025年10月17日发射的低轨通信卫星,隶属于中国千帆星座。千帆星座致力于为全球提供高速、实时、安全、可靠的低轨卫星互联网服务,依托规模化研制技术创新,实现了卫星批产能力的大幅提升。QIANFAN-93的成功入轨,进一步完善了千帆星座组网规模,推动全球卫星互联网服务落地,助力实现天地互联,赋能各行业数字化发展。

Basic Information
目录编号:
66035
目录名称:
QIANFAN-93
国际标识:
2025-233C
轨道中心:
EARTH
卫星名称:
千帆星座-93
卫星全名:
千帆星座-93(QIANFAN-93)
卫星状态:
在轨 (已飞行329 天)
发射日期:
2025-10-17 UTC
国别 :
中国 (CN)
星等 :
--
This satellite is enrolled in the Space Conjunction Data Service (SCDS) and the current flight risk assessment level is: No High Risk
Orbit Information
数据来源 国际轨道数据 AOE轨道数据
星历时间 2026-09-11T02:22:47+0800
12小时前
查看轨道信息
2026-09-10T07:00:00+0800
1天前
查看轨道信息
半长轴 7446.719km 7446.719km
偏心率 0.0002043 0.0002017
轨道倾角 89.005° 89.005°
近地点辐角 92.075° 89.882°
升交点赤经 34.566° 34.648°
平近点角 268.064° 305.280°
近地点 1067.06km 1067.079km
远地点 1070.104km 1070.085km
周期 106.588分钟 106.588分钟
每日圈数 13.510001 13.51
Detailed Information
卫星平台:
93
覆盖范围:
全球
运营商:
上海垣信卫星科技有限公司
运营商所在国:
中国
使用方式:
暂无
Satellite Introduction
千帆星座,也被称为“G60星链”计划,是中国版“星链”的重要组成部分,旨在打造一个由1.4万多颗低轨宽频多媒体卫星构成的庞大星座。千帆星座计划由上海垣信卫星科技有限公司负责实施,于2023年启动建设。该项目是我国第二个低轨卫星大星座,旨在通过构建庞大的卫星网络,为全球用户提供高质量的通信和宽带互联网服务。
2D Orbit Map
3D Orbit Map
Orbit Altitude Analysis Chart
Orbit Inclination Analysis Chart
Orbit Comprehensive Analysis Chart
View Comprehensive Chart
Conjunction Data List
Event ID Objects TCA Miss Dist (km) Collision Risk Probability Collision Risk Index (CRI) Action
CDM_260905-184906-603506-940522
2026-09-05T
18:49:52+0000
0.011 km
极近距离
1.706856E-3 极高风险 1
CDM_260905-170306-603506-940522
2026-09-05T
17:03:13+0000
0.218 km
中距离
7.003154E-4 高风险 0.92
CDM_260905-151606-603506-940522
2026-09-05T
15:16:34+0000
0.432 km
远距离
2.587006E-4 高风险 0.83
CDM_260905-132906-603506-940523
2026-09-05T
13:29:55+0000
0.646 km
远距离
9.835741E-5 中风险 0.75
CDM_260905-175606-603506-940522
2026-09-05T
17:56:33+0000
0.785 km
远距离
5.488568E-5 中风险 0.7
CDM_260905-114306-603506-940523
2026-09-05T
11:43:16+0000
0.859 km
远距离
4.102945E-5 中风险 0.67
CDM_260905-160906-603506-940522
2026-09-05T
16:09:54+0000
0.999 km
远距离
2.471792E-5 中风险 0.63
CDM_260905-095606-603506-940523
2026-09-05T
09:56:37+0000
1.073 km
极远距离
1.927187E-5 中风险 0.61
CDM_260905-142306-603506-940522
2026-09-05T
14:23:15+0000
1.213 km
极远距离
1.257862E-5 中风险 0.57
CDM_260905-080906-603506-940523
2026-09-05T
08:09:58+0000
1.286 km
极远距离
1.023497E-5 中风险 0.55
Miss Distance Evolution Trend with All Objects
Collision Probability Evolution Trend with All Objects